Location: Diati
(11.8376°N, 2.5966°E)
Time: 16:40:43
(UTC+00:00)

NOAA 11 - Pass Details

Date: 21 September 2020
Orbit: 832 x 850 km, 98.4° (Epoch: 19 October)

Event Time Altitude Azimuth Distance (km) Brightness Sun altitude
Rises 17:58:51 0° 162° (SSE) 3,401 7.1 -3.9°
Reaches altitude 10° 18:01:13 10° 160° (SSE) 2,467 6.4 -4.5°
Maximum altitude 18:06:40 69° 77° (ENE) 905 4.2 -5.9°
Drops below altitude 10° 18:12:07 10° 355° (N) 2,469 6.7 -7.2°
Sets 18:14:29 0° 353° (N) 3,404 7.5 -7.8°
